Precipitable_Water
0.97 0.87 0.69 0.75 0.84 0.81 0.75 0.74 0.82 0.79 0.72 0.64 0.61 0.62 0.62 0.63 0.62 0.53 0.38 0.45 0.51 0.63 0.70 0.63 0.59 0.60 0.60 0.50 0.60 0.66 0.51 0.53 0.46 0.52 0.49 0.58 0.54 0.70 0.82 0.84 0.99 1.05 1.10 1.18 1.42
1.11 0.94 0.75 0.74 0.84 0.82 0.79 0.76 0.76 0.81 0.72 0.65 0.60 0.59 0.60 0.61 0.51 0.42 0.54 0.65 0.73 0.77 0.62 0.50 0.47 0.53 0.46 0.43 0.49 0.49 0.42 0.57 0.66 0.67 0.60 0.63 0.59 0.64 0.74 0.80 0.90 1.05 1.25 1.25 1.32
1.19 1.07 0.85 0.73 0.82 0.81 0.79 0.77 0.71 0.77 0.75 0.67 0.60 0.61 0.60 0.60 0.41 0.41 0.64 0.61 0.60 0.62 0.54 0.54 0.56 0.53 0.41 0.46 0.42 0.46 0.36 0.60 0.67 0.76 0.76 0.69 0.65 0.71 0.72 0.70 0.82 0.90 1.12 1.27 1.29
1.23 1.14 0.91 0.74 0.77 0.81 0.78 0.77 0.67 0.77 0.78 0.68 0.61 0.59 0.60 0.53 0.21 0.45 0.58 0.57 0.56 0.59 0.50 0.45 0.45 0.45 0.41 0.34 0.42 0.36 0.45 0.61 0.79 0.82 0.81 0.71 0.72 0.68 0.70 0.75 0.90 1.08 1.13 1.25 1.28
1.27 1.20 1.04 0.74 0.75 0.79 0.75 0.77 0.68 0.71 0.76 0.73 0.62 0.65 0.54 0.39 0.31 0.49 0.55 0.51 0.52 0.54 0.47 0.45 0.41 0.46 0.38 0.41 0.41 0.39 0.46 0.57 0.81 0.82 0.88 0.84 0.69 0.71 0.71 0.85 1.10 1.13 1.21 1.22 1.27
1.29 1.21 1.12 0.81 0.75 0.76 0.75 0.74 0.69 0.65 0.75 0.75 0.66 0.66 0.46 0.23 0.46 0.51 0.50 0.48 0.53 0.56 0.53 0.52 0.46 0.51 0.46 0.43 0.38 0.40 0.46 0.57 0.69 0.81 0.86 0.77 0.70 0.71 0.78 0.92 0.97 1.09 1.14 1.19 1.25
1.29 1.23 1.13 0.87 0.76 0.74 0.70 0.72 0.64 0.63 0.73 0.78 0.65 0.61 0.40 0.27 0.51 0.52 0.51 0.48 0.56 0.60 0.53 0.57 0.64 0.52 0.46 0.40 0.48 0.44 0.42 0.52 0.64 0.76 0.82 0.84 0.65 0.65 0.81 0.90 0.87 0.91 1.12 1.19 1.26
1.31 1.25 1.13 0.92 0.75 0.70 0.70 0.64 0.63 0.68 0.70 0.72 0.65 0.54 0.29 0.51 0.56 0.50 0.53 0.49 0.61 0.64 0.61 0.64 0.69 0.58 0.49 0.53 0.47 0.36 0.45 0.37 0.62 0.70 0.77 0.79 0.55 0.71 0.81 0.81 0.79 0.86 0.89 1.01 1.18
1.31 1.26 1.13 0.92 0.73 0.66 0.67 0.64 0.66 0.67 0.65 0.65 0.51 0.48 0.31 0.54 0.46 0.52 0.50 0.42 0.54 0.63 0.65 0.68 0.63 0.49 0.48 0.41 0.36 0.34 0.30 0.34 0.49 0.69 0.68 0.71 0.62 0.73 0.81 0.77 0.73 0.76 0.83 0.88 0.97
1.29 1.27 1.14 0.91 0.71 0.63 0.68 0.66 0.61 0.64 0.66 0.62 0.55 0.40 0.40 0.35 0.46 0.45 0.49 0.50 0.46 0.52 0.54 0.55 0.53 0.42 0.41 0.38 0.25 0.23 0.33 0.40 0.43 0.62 0.65 0.63 0.63 0.76 0.77 0.74 0.72 0.75 0.78 0.80 0.85
1.32 1.25 1.13 0.89 0.66 0.62 0.65 0.53 0.42 0.43 0.51 0.32 0.35 0.35 0.40 0.47 0.50 0.40 0.46 0.45 0.48 0.49 0.38 0.47 0.37 0.33 0.39 0.41 0.41 0.30 0.35 0.37 0.49 0.64 0.59 0.56 0.62 0.68 0.77 0.75 0.70 0.73 0.75 0.75 0.77
1.30 1.23 1.12 0.88 0.63 0.67 0.62 0.44 0.46 0.47 0.30 0.43 0.42 0.43 0.48 0.52 0.33 0.41 0.52 0.40 0.44 0.36 0.42 0.39 0.34 0.42 0.48 0.50 0.39 0.34 0.34 0.37 0.52 0.61 0.56 0.56 0.57 0.70 0.72 0.72 0.74 0.73 0.73 0.75 0.76
1.27 1.23 1.08 0.84 0.64 0.61 0.51 0.48 0.59 0.52 0.31 0.36 0.42 0.40 0.43 0.48 0.41 0.45 0.56 0.51 0.43 0.37 0.38 0.34 0.39 0.45 0.41 0.41 0.35 0.34 0.34 0.36 0.41 0.56 0.58 0.54 0.50 0.57 0.66 0.72 0.75 0.76 0.76 0.74 0.76
1.25 1.19 1.03 0.80 0.54 0.57 0.46 0.58 0.59 0.52 0.19 0.23 0.33 0.42 0.49 0.50 0.39 0.59 0.65 0.54 0.46 0.39 0.43 0.42 0.50 0.47 0.44 0.40 0.39 0.29 0.44 0.41 0.41 0.43 0.36 0.53 0.35 0.53 0.58 0.60 0.65 0.68 0.71 0.72 0.73
1.23 1.15 1.00 0.77 0.54 0.46 0.50 0.59 0.55 0.45 0.06 0.23 0.33 0.55 0.53 0.47 0.50 0.53 0.69 0.58 0.42 0.44 0.45 0.40 0.46 0.46 0.44 0.44 0.46 0.36 0.46 0.42 0.43 0.42 0.44 0.45 0.39 0.45 0.52 0.49 0.55 0.61 0.63 0.67 0.70
1.21 1.12 0.94 0.70 0.60 0.56 0.59 0.56 0.47 0.16 0.07 0.20 0.33 0.35 0.39 0.48 0.52 0.58 0.55 0.61 0.57 0.50 0.52 0.48 0.60 0.56 0.52 0.52 0.49 0.51 0.45 0.45 0.44 0.40 0.31 0.39 0.39 0.37 0.41 0.45 0.46 0.51 0.56 0.60 0.64
1.17 1.08 0.89 0.66 0.48 0.60 0.56 0.44 0.18 0.08 0.22 0.20 0.26 0.33 0.37 0.39 0.43 0.48 0.44 0.43 0.39 0.32 0.35 0.44 0.45 0.55 0.58 0.44 0.51 0.50 0.41 0.30 0.27 0.28 0.26 0.40 0.36 0.35 0.43 0.47 0.43 0.45 0.48 0.51 0.57
1.12 1.06 0.89 0.65 0.64 0.58 0.48 0.32 0.10 0.14 0.17 0.28 0.29 0.32 0.29 0.36 0.39 0.41 0.38 0.35 0.45 0.39 0.34 0.31 0.28 0.45 0.54 0.49 0.45 0.45 0.40 0.29 0.22 0.22 0.26 0.39 0.29 0.32 0.42 0.45 0.46 0.48 0.49 0.49 0.49
1.11 0.99 0.78 0.64 0.62 0.56 0.36 0.19 0.11 0.15 0.21 0.22 0.26 0.23 0.25 0.32 0.36 0.36 0.36 0.37 0.45 0.48 0.33 0.31 0.32 0.51 0.54 0.54 0.52 0.41 0.35 0.43 0.31 0.32 0.26 0.32 0.34 0.37 0.41 0.43 0.44 0.43 0.44 0.44 0.46
0.98 0.88 0.61 0.69 0.63 0.50 0.30 0.21 0.20 0.25 0.26 0.24 0.18 0.23 0.20 0.25 0.28 0.30 0.31 0.40 0.40 0.46 0.47 0.37 0.30 0.46 0.50 0.57 0.54 0.44 0.46 0.32 0.33 0.23 0.18 0.23 0.24 0.24 0.31 0.37 0.40 0.40 0.41 0.43 0.44
0.91 0.68 0.61 0.67 0.60 0.39 0.21 0.24 0.25 0.30 0.29 0.23 0.21 0.22 0.25 0.25 0.28 0.27 0.28 0.36 0.41 0.41 0.44 0.38 0.31 0.35 0.43 0.40 0.40 0.38 0.33 0.33 0.33 0.29 0.21 0.19 0.21 0.32 0.32 0.36 0.37 0.41 0.42 0.41 0.38
0.81 0.47 0.63 0.64 0.32 0.32 0.24 0.31 0.35 0.28 0.34 0.30 0.30 0.27 0.26 0.28 0.26 0.27 0.27 0.33 0.42 0.44 0.34 0.39 0.34 0.27 0.32 0.44 0.49 0.45 0.39 0.35 0.24 0.23 0.25 0.23 0.23 0.37 0.36 0.40 0.41 0.38 0.38 0.40 0.41
0.72 0.46 0.65 0.58 0.22 0.23 0.30 0.33 0.35 0.30 0.30 0.30 0.27 0.32 0.33 0.28 0.24 0.31 0.32 0.42 0.43 0.39 0.35 0.38 0.30 0.23 0.26 0.32 0.38 0.33 0.36 0.38 0.35 0.32 0.24 0.20 0.22 0.39 0.41 0.41 0.41 0.39 0.40 0.42 0.43
0.57 0.35 0.44 0.46 0.41 0.29 0.27 0.30 0.30 0.38 0.33 0.34 0.29 0.33 0.30 0.28 0.32 0.29 0.31 0.40 0.44 0.41 0.42 0.41 0.31 0.24 0.19 0.25 0.33 0.30 0.34 0.38 0.34 0.25 0.25 0.24 0.26 0.31 0.37 0.40 0.42 0.41 0.42 0.42 0.42
0.44 0.37 0.36 0.24 0.28 0.32 0.33 0.32 0.28 0.27 0.36 0.35 0.28 0.29 0.26 0.25 0.26 0.27 0.33 0.35 0.40 0.43 0.40 0.36 0.24 0.29 0.31 0.34 0.34 0.33 0.33 0.34 0.30 0.33 0.28 0.30 0.29 0.33 0.39 0.41 0.42 0.44 0.44 0.44 0.44
0.40 0.34 0.36 0.30 0.32 0.32 0.32 0.29 0.28 0.31 0.31 0.27 0.27 0.32 0.31 0.27 0.28 0.25 0.30 0.31 0.29 0.37 0.35 0.38 0.27 0.28 0.25 0.31 0.31 0.27 0.31 0.33 0.33 0.34 0.33 0.34 0.33 0.44 0.43 0.45 0.44 0.46 0.47 0.45 0.46
0.53 0.47 0.35 0.31 0.30 0.30 0.28 0.30 0.32 0.35 0.36 0.36 0.34 0.32 0.30 0.32 0.36 0.38 0.38 0.38 0.36 0.33 0.33 0.33 0.29 0.25 0.20 0.28 0.26 0.20 0.25 0.28 0.30 0.34 0.33 0.27 0.33 0.39 0.38 0.39 0.41 0.43 0.46 0.46 0.48
Wind_Speed
26 27 27 27 27 28 29 28 28 26 26 26 27 27 27 27 27 26 26 25 25 26 27 26 27 27 28 31 34 37 42 31 41 37 38 33 33 31 29 30 31 34 25 30 30
27 27 27 27 27 28 28 28 27 26 26 26 27 27 27 27 27 27 27 27 28 28 28 29 29 30 30 30 34 38 41 30 36 32 35 31 33 33 30 31 29 30 28 29 32
28 28 27 27 27 28 28 28 26 26 26 26 27 27 27 28 27 27 26 26 27 26 28 31 32 32 34 33 35 37 42 38 36 35 32 31 31 31 32 32 32 31 29 29 31
28 27 27 27 27 27 28 27 25 26 26 26 27 27 28 25 26 25 26 26 26 24 22 24 30 33 33 36 36 36 41 38 30 33 30 31 31 30 32 32 32 32 31 30 30
27 27 27 26 27 27 27 26 25 25 26 26 27 27 26 27 28 26 24 24 21 19 19 20 25 31 35 32 35 39 36 40 34 29 31 31 32 30 29 29 30 32 32 32 29
27 27 26 26 26 26 27 24 25 25 25 26 26 26 27 27 25 22 22 20 17 15 15 16 21 29 31 33 36 35 41 34 42 29 31 31 32 31 28 29 30 31 31 32 31
27 26 25 25 25 25 25 23 25 24 25 25 25 26 27 26 22 21 18 15 12 9 9 9 16 24 30 30 34 38 34 36 42 36 24 32 30 30 28 29 29 29 30 31 31
26 24 24 24 24 24 23 23 22 23 24 24 25 25 26 22 20 15 14 11 8 7 7 8 13 20 25 28 30 36 33 37 37 37 24 31 31 31 29 29 29 28 28 28 30
25 24 23 22 22 22 21 19 21 21 21 22 24 24 23 20 16 13 11 8 5 4 5 7 12 19 26 28 30 34 33 37 29 32 26 26 31 29 29 29 28 27 27 28 28
25 23 22 21 20 19 18 17 18 20 20 22 23 22 18 16 14 10 7 5 5 4 4 6 11 16 19 31 30 35 31 30 31 27 28 28 30 29 27 30 29 27 27 27 28
23 22 20 19 17 16 14 14 16 18 20 21 20 17 13 12 10 5 2 4 4 4 5 8 12 13 15 28 25 34 33 30 27 24 21 26 29 32 28 28 30 30 28 27 27
23 21 19 18 15 12 11 13 14 15 19 19 16 13 12 11 9 7 6 3 4 4 5 7 8 12 23 21 24 31 32 33 29 25 16 18 19 29 30 29 28 30 31 30 27
23 19 16 13 11 10 9 10 11 12 18 16 12 12 13 13 11 9 8 5 5 5 8 8 9 14 22 20 23 27 32 28 30 17 13 16 15 21 29 30 30 31 30 30 30
22 19 15 11 8 6 7 7 8 11 15 13 12 12 12 12 11 11 11 10 8 10 9 9 15 17 17 19 23 24 28 27 28 16 11 11 13 20 23 23 32 33 31 31 30
23 18 13 10 6 5 4 4 7 11 13 10 11 11 13 12 11 12 9 9 8 9 9 12 15 10 16 15 19 21 26 24 20 14 11 8 14 16 18 24 22 27 32 33 31
23 17 13 9 5 3 1 4 7 13 9 10 9 10 12 13 13 11 11 12 12 12 17 15 10 12 11 13 17 21 22 18 16 14 13 12 13 16 18 20 19 25 26 28 29
22 17 15 10 6 5 4 4 9 10 10 10 10 11 11 11 14 14 15 15 14 14 11 11 8 9 12 15 13 20 19 14 13 13 15 14 13 16 17 17 18 20 24 25 26
22 18 15 10 9 9 6 5 8 8 8 11 11 10 10 12 12 13 13 13 13 13 12 9 7 6 6 12 13 15 14 11 11 12 13 11 13 13 13 15 14 17 17 18 20
22 19 14 11 12 10 6 4 5 8 11 12 12 10 8 10 11 13 14 13 13 10 10 10 8 6 8 11 10 11 9 7 10 9 9 11 11 12 11 12 12 12 13 13 15
21 19 14 14 14 10 6 3 6 9 11 12 10 8 8 7 7 8 9 8 8 8 7 8 9 6 7 9 8 10 11 8 7 9 9 8 9 11 12 13 13 13 13 14 15
23 18 17 16 14 10 7 5 7 9 9 9 9 10 8 7 7 7 6 6 6 6 7 5 4 3 5 5 9 8 8 6 6 6 8 7 10 11 12 13 14 14 14 15 15
22 16 19 18 13 10 8 8 9 10 8 9 10 9 9 7 7 5 5 3 3 4 6 5 6 5 4 4 6 7 9 8 8 10 8 9 9 8 10 11 13 12 11 12 13
20 17 19 18 12 11 9 10 10 10 9 9 9 7 7 7 6 5 3 2 2 3 4 5 5 6 3 2 3 4 6 7 8 8 11 9 11 9 9 10 11 13 13 13 15
21 17 17 17 13 13 12 12 11 10 9 9 10 9 8 8 8 6 5 3 2 3 3 3 4 3 4 3 3 4 5 7 8 9 12 14 14 12 12 14 15 17 16 17 18
19 16 17 18 17 15 13 13 12 10 8 8 8 7 8 7 7 7 6 5 4 4 2 1 0 1 1 1 2 3 5 7 8 10 10 13 17 17 18 21 23 23 24 24 24
19 16 16 13 17 17 13 13 13 10 10 8 9 8 7 7 6 6 7 6 5 5 5 3 2 1 1 2 5 6 7 8 9 11 14 15 17 18 21 21 23 26 27 26 26
18 16 17 16 17 17 15 14 14 12 8 9 10 9 8 7 8 9 8 7 7 6 6 6 5 3 2 4 5 6 7 9 10 11 12 14 17 16 19 21 22 23 23 24 25
Wind_Direction
308 309 309 309 310 313 315 313 312 309 309 309 308 308 308 306 302 297 291 284 278 269 262 253 244 236 228 224 219 214 215 218 213 211 214 213 214 214 214 208 210 211 207 202 199
308 308 308 309 310 313 314 314 310 310 309 310 310 309 308 307 302 296 292 287 281 273 263 251 244 236 228 223 218 213 213 221 210 212 213 215 214 211 210 209 210 210 211 198 202
303 307 307 308 310 313 314 315 311 311 311 311 311 311 309 307 303 299 296 292 286 277 266 253 240 234 227 221 216 214 215 218 212 212 212 213 210 213 207 212 210 204 203 198 197
299 304 307 308 310 312 314 314 312 313 312 313 312 312 310 307 305 302 298 295 291 278 268 253 236 228 223 219 215 216 213 212 211 211 212 212 210 209 212 213 212 206 202 198 199
294 302 305 308 309 312 315 314 313 313 314 313 314 314 312 309 304 303 301 299 292 278 268 251 233 221 218 214 213 213 209 207 210 210 209 210 206 208 211 210 206 204 201 201 203
289 297 304 307 309 312 315 313 315 314 316 316 316 315 313 310 308 304 304 301 290 282 270 252 226 215 214 212 207 206 207 211 208 210 205 205 206 204 208 207 206 205 204 203 202
286 293 301 306 309 312 315 315 317 315 316 319 318 317 314 308 308 306 306 304 291 279 259 239 216 207 204 207 208 207 202 206 202 207 201 204 204 202 206 204 204 207 208 207 206
283 289 297 304 308 313 315 317 320 320 320 321 321 321 316 313 310 303 306 304 288 278 250 228 208 204 201 203 199 197 202 201 197 204 210 201 198 202 205 203 205 209 211 211 211
279 283 295 303 307 314 316 319 324 328 328 328 327 325 320 319 311 298 301 292 278 266 242 217 213 204 192 199 193 191 196 199 200 202 207 201 199 201 206 205 207 212 216 217 216
273 278 289 299 306 313 316 322 329 334 336 335 332 331 328 330 322 299 291 282 264 256 248 181 174 175 193 191 191 188 190 192 201 196 196 204 206 206 208 210 211 215 219 220 220
267 273 285 295 305 312 316 329 338 340 343 342 340 340 344 353 1 29 5 311 246 225 185 185 182 188 195 183 191 184 187 186 190 191 200 200 216 207 210 211 214 216 217 221 222
261 267 277 292 302 309 315 326 337 347 352 351 354 4 10 19 24 29 5 6 151 154 167 172 181 188 171 179 184 185 187 188 184 187 197 198 219 206 211 212 212 216 220 222 224
254 259 269 283 297 303 315 328 345 356 4 8 21 32 38 43 43 37 39 69 116 129 150 149 148 162 168 181 189 184 183 185 182 183 194 197 220 208 216 218 220 219 220 223 226
244 247 261 266 290 297 316 334 356 9 17 22 37 44 45 46 40 37 70 98 106 119 128 127 135 135 162 181 179 178 184 177 180 200 205 219 199 209 199 214 222 223 222 223 226
234 243 243 243 269 287 320 7 22 19 25 38 48 47 49 45 36 53 79 98 94 108 136 123 132 126 150 158 172 175 171 176 180 192 194 224 210 207 203 215 218 219 226 226 227
226 229 223 234 247 258 121 64 42 26 26 44 52 56 54 51 54 57 90 93 94 97 102 116 115 100 133 150 155 163 162 172 189 201 224 209 205 211 207 212 223 226 222 224 228
214 218 210 215 217 178 143 84 33 43 60 62 67 65 58 60 58 80 86 91 94 98 100 109 95 105 120 134 139 153 167 181 199 210 217 207 206 220 219 224 226 220 221 224 227
204 201 199 204 182 166 143 64 49 61 78 77 76 66 77 69 70 79 87 87 79 100 100 101 100 100 139 145 147 163 177 176 186 194 201 198 213 219 218 222 219 210 216 220 223
193 189 191 185 175 166 141 79 89 96 98 96 78 75 86 82 89 82 84 85 89 75 101 99 97 106 124 154 157 168 162 175 166 179 178 202 226 231 215 208 207 207 213 218 225
189 185 186 177 170 164 145 125 106 104 100 92 85 91 91 97 98 83 75 79 80 76 94 97 95 96 121 148 170 162 173 180 180 183 202 222 228 222 220 215 215 219 227 231 234
179 179 180 173 169 164 158 146 131 126 110 97 97 97 98 100 101 97 78 70 75 66 69 94 98 135 123 143 164 183 190 187 182 197 205 213 234 230 235 227 224 228 231 234 236
177 176 176 172 169 171 164 150 135 130 116 97 101 99 105 101 85 98 99 77 75 66 61 63 102 118 142 171 177 194 198 204 209 222 223 218 237 241 227 214 216 226 226 228 235
176 170 175 175 171 172 162 149 137 131 126 113 109 108 101 100 85 92 91 86 68 67 75 81 90 103 76 136 200 205 218 218 221 231 232 224 240 236 222 226 228 230 235 241 243
173 170 174 181 175 167 160 152 140 139 130 122 115 108 101 84 71 93 87 77 66 84 90 98 93 128 168 179 177 211 230 226 229 236 236 237 244 246 245 245 246 244 246 252 252
172 176 177 180 182 170 161 156 146 142 136 134 115 112 112 92 83 85 80 75 64 48 78 111 138 134 153 194 202 233 235 227 230 237 236 249 244 249 255 253 250 249 255 259 258
172 172 173 169 170 166 166 166 155 146 145 144 129 121 109 103 97 102 92 81 73 67 73 55 72 91 309 314 249 258 260 253 251 251 256 257 263 258 260 256 255 255 256 257 261
171 169 167 168 168 167 171 164 163 150 136 143 142 123 108 109 97 91 82 79 82 86 75 70 79 56 337 324 304 292 268 263 264 261 261 263 266 271 268 264 262 261 258 258 261